This demonstration page uses our WeatherBlox Daily Observations layout. Learn more.

Left ArrowRight Arrow

39.51506, -84.39828

Hourly Observations for November 6, 2020

Temp ( °F °C ) Dew Point ( °F °C ) Humidity (%) Winds ( mph kmh ) Pressure ( in mb ) Visibility ( mi km ) Precip ( " mm )
12:15 am 00:15 Clear with Mist and Fog 43 6 45 7 100 100 Calm 30.31 1026 5 8.0467 0 0
12:35 am 00:35 Mostly Cloudy with Mist and Fog 43 6 N/A N/A Calm 30.31 1026 1.5 2.41401 0 0
12:55 am 00:55 Clear 41 5 N/A N/A Calm 30.32 1027 10 16.0934 0 0
1:15 am 01:15 Clear 41 5 N/A N/A Calm 30.31 1026 7 11.26538 0 0
1:35 am 01:35 Mostly Cloudy with Mist and Fog 41 5 N/A N/A Calm 30.31 1026 1.5 2.41401 0 0
1:55 am 01:55 Hazy 41 5 N/A N/A Calm 30.31 1026 7 11.26538 0 0
2:15 am 02:15 Clear 39 4 N/A N/A Calm 30.31 1027 10 16.0934 0 0
2:35 am 02:35 Clear 41 5 N/A N/A Calm 30.31 1026 7 11.26538 0 0
2:55 am 02:55 Hazy 41 5 N/A N/A Calm 30.31 1026 5 8.0467 0 0
3:15 am 03:15 Clear 39 4 N/A N/A Calm 30.31 1027 10 16.0934 0 0
3:35 am 03:35 Hazy 37 3 N/A N/A Calm 30.32 1027 7 11.26538 0 0
3:55 am 03:55 Clear 39 4 N/A N/A Calm 30.31 1027 10 16.0934 0 0
4:15 am 04:15 Clear 37 3 N/A N/A Calm 30.32 1027 10 16.0934 0 0
4:35 am 04:35 Clear 37 3 N/A N/A Calm 30.32 1027 7 11.26538 0 0
4:55 am 04:55 Clear with Mist and Fog 37 3 N/A N/A Calm 30.33 1027 4 6.43736 0 0
5:15 am 05:15 Mostly Cloudy with Mist and Fog 37 3 N/A N/A Calm 30.33 1027 1.25 2.011675 0 0
5:35 am 05:35 Mostly Cloudy with Mist and Fog 37 3 N/A N/A Calm 30.34 1027 1.25 2.011675 0 0
5:55 am 05:55 Clear with Mist and Fog 37 3 N/A N/A Calm 30.34 1027 2.5 4.02335 0 0
6:15 am 06:15 Mostly Cloudy with Mist and Fog 37 3 N/A N/A Calm 30.34 1027 1.5 2.41401 0 0
6:35 am 06:35 Mostly Cloudy with Fog 34 1 N/A N/A Calm 30.34 1028 0.5 0.80467 0 0
6:55 am 06:55 Mostly Cloudy with Mist and Fog 37 3 N/A N/A Calm 30.34 1027 1 1.60934 0 0
7:15 am 07:15 Mostly Cloudy with Fog 36 2 N/A N/A Calm 30.35 1028 N/A 0 0
7:35 am 07:35 Sunny with Mist and Fog 36 2 N/A N/A Calm 30.35 1028 2 3.21868 0 0
7:55 am 07:55 Hazy 36 2 N/A N/A Calm 30.35 1028 7 11.26538 0 0
8:15 am 08:15 Sunny with Mist and Fog 37 3 N/A N/A Calm 30.36 1028 3 4.82802 0 0
8:35 am 08:35 Hazy 43 6 N/A N/A Calm 30.35 1028 5 8.0467 0 0
8:55 am 08:55 Sunny 45 7 N/A N/A Calm 30.36 1028 7 11.26538 0 0
9:15 am 09:15 Sunny 48 8.8 46 7.8 94 94 Calm 30.35 1028 7 11.26538 0 0
9:35 am 09:35 Sunny 50 10.2 45 7.3 82 82 Calm 30.35 1028 10 16.0934 0 0
9:55 am 09:55 Sunny 53 11.8 46 7.6 76 76 SW 3 6 30.34 1028 10 16.0934 0 0
10:15 am 10:15 Sunny 55 12.6 46 7.6 72 72 SSW 5 7 30.35 1028 10 16.0934 0 0
10:35 am 10:35 Sunny 56 13.4 45 7.3 67 67 SW 6 9 30.34 1027 10 16.0934 0 0
10:55 am 10:55 Sunny 58 14.5 46 8 65 65 SW 6 9 30.34 1027 10 16.0934 0 0
11:15 am 11:15 Sunny 60 15.3 47 8.2 63 63 SSW 5 7 30.34 1027 10 16.0934 0 0
11:35 am 11:35 Sunny 61 16.3 47 8.4 60 60 SSW 5 7 30.32 1027 10 16.0934 0 0
11:55 am 11:55 Sunny 63 17.4 47 8.5 56 56 SSW 3 6 30.31 1026 10 16.0934 0 0
12:15 pm 12:15 Sunny 65 18.5 47 8.3 52 52 SW 8 13 30.3 1026 10 16.0934 0 0
12:35 pm 12:35 Sunny 67 19.4 46 8 48 48 WSW 9 15 30.29 1026 10 16.0934 0 0
12:55 pm 12:55 Sunny 68 19.9 47 8.1 47 47 W 9 15 30.27 1025 10 16.0934 0 0
1:15 pm 13:15 Sunny 68 20.2 46 7.9 45 45 WSW 9 15 30.26 1025 10 16.0934 0 0
1:35 pm 13:35 Sunny 69 20.4 46 7.8 44 44 WSW 8 13 30.25 1024 10 16.0934 0 0
1:55 pm 13:55 Sunny 70 20.9 46 7.5 42 42 SW 9 15 30.25 1024 10 16.0934 0 0
2:15 pm 14:15 Sunny 70 21.1 44 6.4 39 39 WSW 9 15 30.25 1024 10 16.0934 0 0
2:35 pm 14:35 Sunny 70 21.2 44 6.7 39 39 W 10 17 30.24 1024 10 16.0934 0 0
2:55 pm 14:55 Sunny 70 21.3 44 6.4 38 38 WSW 6 9 30.24 1024 10 16.0934 0 0
3:15 pm 15:15 Sunny 70 21.3 44 6.4 38 38 WSW 6 9 30.24 1024 10 16.0934 0 0
3:35 pm 15:35 Sunny 70 21 45 7 40 40 SW 8 13 30.24 1024 10 16.0934 0 0
3:55 pm 15:55 Sunny 70 21 44 6.6 39 39 SW 8 13 30.24 1024 10 16.0934 0 0
4:15 pm 16:15 Sunny 69 20.6 43 6.2 39 39 SW 7 11 30.24 1024 10 16.0934 0 0
4:35 pm 16:35 Sunny 68 20.1 44 6.4 41 41 SW 7 11 30.23 1024 10 16.0934 0 0
4:55 pm 16:55 Sunny 67 19.2 43 6.1 43 43 SW 8 13 30.24 1024 10 16.0934 0 0
5:15 pm 17:15 Sunny 65 18.2 42 5.8 44 44 SW 7 11 30.25 1024 10 16.0934 0 0
5:35 pm 17:35 Clear 60 15.5 44 6.6 56 56 Calm 30.26 1025 10 16.0934 0 0
5:55 pm 17:55 Clear 57 13.8 45 7.4 66 66 Calm 30.26 1025 10 16.0934 0 0
6:15 pm 18:15 Clear 53 11.6 45 7.3 75 75 Calm 30.28 1025 10 16.0934 0 0
6:35 pm 18:35 Clear 54 12.1 45 7.3 73 73 Calm 30.27 1025 10 16.0934 0 0
6:55 pm 18:55 Clear 51 10.6 46 7.5 81 81 Calm 30.28 1025 10 16.0934 0 0
7:15 pm 19:15 Clear 51 10.3 46 7.5 83 83 Calm 30.28 1025 10 16.0934 0 0
7:35 pm 19:35 Clear 48 9.1 44 6.8 86 86 Calm 30.28 1025 10 16.0934 0 0
7:55 pm 19:55 Clear 47 8.5 44 6.8 89 89 Calm 30.28 1025 10 16.0934 0 0
8:15 pm 20:15 Clear 47 8.2 45 7.1 93 93 Calm 30.29 1026 10 16.0934 0 0
8:35 pm 20:35 Clear 46 7.9 44 6.7 92 92 Calm 30.28 1026 10 16.0934 0 0
8:55 pm 20:55 Clear 46 7.5 44 6.7 95 95 Calm 30.29 1026 10 16.0934 0 0
9:15 pm 21:15 Clear 45 7 42 5.8 92 92 Calm 30.29 1026 10 16.0934 0 0
9:35 pm 21:35 Clear 45 7.1 43 6 93 93 Calm 30.29 1026 10 16.0934 0 0
9:55 pm 21:55 Clear 44 6.7 43 6 95 95 Calm 30.29 1026 10 16.0934 0 0
10:15 pm 22:15 Clear 43 5.9 42 5.5 97 97 Calm 30.29 1026 10 16.0934 0 0
10:35 pm 22:35 Clear 43 6.1 42 5.5 96 96 Calm 30.29 1026 10 16.0934 0 0
10:55 pm 22:55 Clear 42 5.8 42 5.5 98 98 Calm 30.29 1026 10 16.0934 0 0
11:15 pm 23:15 Clear 42 5.3 41 5.1 99 99 Calm 30.29 1026 10 16.0934 0 0
11:35 pm 23:35 Clear 41 5.1 40 4.5 96 96 Calm 30.29 1026 10 16.0934 0 0
11:55 pm 23:55 Clear 41 4.9 40 4.7 99 99 Calm 30.29 1026 10 16.0934 0 0

Powered by AerisWeather